Ana Sayfa
METAR-TAF:

METAR-TAF

Havaalanları :

Person County Airport

Roxboro, Kuzey Carolina, Amerika Birleşik Devletleri

Enlem: 36-17-06N, Boylam: 078-59-03W, yükseklik: 186 m

Güncel hava durumu gözlemi

Rapor saat 19:35 UTC de 5 dakika önce yapıldı.
Rüzgar kuzey/kuzeydoğudan 5 kt
Sıcaklık 7°C
Nem 53%
Basınç 1028 hPa
Görüş mesafesi: 16.1 km
4200 ft yükseklikte çok bulutlu

METAR: KTDF 071935Z AUTO 03005KT 10SM OVC042 07/M02 A3037 RMK AO2

Saat: 14:40 (19:40 UTC)


TAF: eksik

4.000'den fazla havaalanı için hava durumu gözlemleri ve tahminleri (METAR ve TAF raporları).

Kullanılabilir istasyonlar harita üzerinde sarı ve kırmızı noktalarla gösterilir.

İstasyonun adını görmek için fareyi noktanın üzerinde gezdirin.

Sonrasında hava gözlem ve tahminlerini görmek için tıklayın.

Haritayı değiştirmek için: yaklaştırmak için siyah artı işaretli yeşil düğmeye ve uzaklaştırmak için de eksi işaretli düğmeye hızla tıklayın; bitişik haritalar için yeşil okları kullanın.


METAR-TAF: